Orbital Elements at Epoch 2459000.5 (2020-May-31.0) TDB
Reference: JPL 19 (heliocentric ecliptic J2000)
Element | Value | Uncertainty (1-sigma) | Units |
e | .1366815365899811 | 5.326e-08 | |
a | 2.616100370659448 | 1.8924e-08 | au |
q | 2.258527752124096 | 1.4363e-07 | au |
i | 14.05909038789014 | 6.5037e-06 | deg |
node | 234.7601543185144 | 2.4042e-05 | deg |
peri | 84.20282097800818 | 3.4796e-05 | deg |
M | 148.5052116549261 | 2.3465e-05 | deg |
tp | 2458362.942697154946 (2018-Sep-01.44269715) | 0.0001004 | TDB |
period | 1545.539220250026 4.23 | 1.677e-05 4.591e-08 | d yr |
n | .2329284144220952 | 2.5274e-09 | deg/d |
Q | 2.973672989194801 | 2.151e-08 | au |
|
| | Orbit Determination Parameters
Additional Information
|